Wind_Speed
6 2 2 3 9 4 6 8 12 7 13 14 9 17 20 27 27 28 38 40 38 20 13 15 18 17 14 11 9 0 3 7 8 16 21 25 30 26 24 25 25 27 29
9 3 3 4 10 4 4 8 6 6 10 12 13 12 16 21 29 33 32 40 39 32 12 12 17 19 16 10 8 4 6 10 10 19 23 29 29 26 26 25 26 28 30
11 3 5 3 10 5 6 7 2 4 7 8 11 14 12 19 23 27 33 35 37 37 19 5 21 21 19 14 9 7 7 12 12 22 23 30 27 25 24 23 24 27 28
11 1 5 11 7 5 6 4 2 2 4 5 8 15 15 17 20 23 26 31 37 37 30 20 23 24 23 20 14 11 10 13 13 21 26 25 23 23 22 21 22 25 26
8 12 10 8 6 6 5 5 1 1 3 3 7 10 14 13 18 23 26 28 29 33 35 26 22 26 26 24 20 17 14 14 14 20 27 26 23 21 21 16 18 21 23
7 8 11 8 7 6 5 2 3 2 6 4 7 10 12 13 21 25 28 27 26 28 37 35 27 24 26 26 21 20 18 13 14 20 25 23 23 22 19 16 17 17 18
3 6 9 11 7 7 7 4 5 6 2 3 9 13 12 15 21 23 22 24 24 27 36 35 35 28 23 23 24 22 18 17 14 19 23 21 22 19 17 16 14 16 17
9 6 6 10 11 9 10 9 7 4 3 2 9 11 11 12 16 19 19 21 20 22 26 32 33 37 29 20 20 21 20 17 15 15 19 19 20 18 18 14 11 14 17
9 8 6 7 6 7 9 12 6 4 5 5 7 10 15 12 12 18 19 20 18 17 19 24 28 34 33 27 18 16 16 17 14 13 12 15 15 15 16 12 11 13 17
12 9 8 5 6 4 3 7 12 14 13 5 5 10 14 12 11 14 15 16 13 14 18 18 23 24 28 28 23 17 13 13 14 11 9 10 12 13 14 14 13 15 17
11 10 9 7 6 9 8 9 9 8 11 11 13 13 15 15 15 14 13 16 14 14 17 19 22 23 20 24 24 24 16 9 9 11 12 9 8 9 11 13 13 13 17
17 13 11 11 13 13 15 12 14 13 12 13 14 14 16 17 14 14 16 16 16 15 16 18 21 20 17 20 24 22 24 18 9 5 4 6 8 10 11 12 16 14 17
18 14 14 16 17 17 16 15 16 15 17 12 13 18 23 21 19 22 18 18 16 16 17 16 16 16 15 15 14 16 25 23 22 12 6 2 1 2 9 12 15 18 18
23 22 18 20 19 17 19 14 17 16 13 14 17 17 18 20 22 20 20 20 18 17 16 14 14 12 13 12 14 13 12 18 20 18 12 6 2 2 3 8 12 16 20
22 26 27 21 17 17 18 15 14 14 12 12 14 17 18 18 17 18 18 18 16 18 17 15 14 13 11 10 9 12 17 14 11 16 14 10 4 2 3 7 10 13 17
15 14 18 17 15 17 19 14 15 18 18 17 15 13 15 16 17 18 20 21 22 21 19 18 16 14 13 13 13 12 13 11 6 10 13 10 5 1 4 8 10 11 14
20 20 18 12 15 20 23 19 17 18 18 18 16 14 14 16 17 20 20 18 18 17 17 17 17 20 18 16 15 16 14 11 9 11 11 11 8 2 1 5 10 14 15
19 20 20 18 24 24 22 21 20 21 20 18 19 21 22 21 23 22 21 22 23 22 21 19 18 20 20 19 18 19 16 15 15 13 11 15 13 11 6 2 4 8 12
23 21 23 26 27 29 29 26 27 27 26 24 26 27 26 24 25 24 22 20 22 21 20 21 21 20 20 22 21 21 19 21 22 25 20 18 17 16 16 12 10 9 13
22 23 24 24 26 28 29 30 27 28 27 28 28 28 26 25 24 26 27 25 24 26 27 26 24 24 24 26 25 26 26 26 28 29 28 26 24 22 24 21 20 19 19
21 25 23 28 31 33 31 29 30 32 32 32 33 33 31 31 30 30 30 30 31 32 32 33 33 33 32 31 30 30 31 33 33 34 32 28 28 29 28 30 27 26 28
31 30 30 34 34 36 38 37 37 35 34 34 35 37 38 40 39 37 37 37 38 38 38 39 38 39 40 40 39 39 36 36 38 37 42 39 39 39 35 34 32 31 34
31 33 35 38 42 40 41 40 42 43 44 45 44 45 45 46 47 47 46 48 47 47 47 47 50 50 51 49 47 45 45 44 44 41 42 46 45 46 43 43 46 45 43
34 34 36 38 41 46 48 48 47 46 47 48 50 51 50 50 53 53 53 50 49 50 49 49 51 54 54 53 53 54 52 52 53 53 49 51 49 50 49 49 48 49 51
39 41 41 42 45 48 51 54 55 55 55 56 56 56 58 58 58 58 58 58 59 59 59 60 58 60 60 60 61 61 62 58 59 62 60 59 61 54 53 55 57 54 51
43 48 48 50 53 55 57 60 60 62 63 64 64 64 64 65 66 66 67 69 69 70 72 70 72 70 70 71 71 68 67 67 63 64 70 65 69 68 67 66 63 63 64
Wind_Direction
357 298 111 170 143 130 104 87 112 63 44 47 36 32 52 41 35 24 25 20 22 14 34 5 0 358 355 343 359 276 145 153 149 147 150 154 153 155 158 163 165 161 161
9 6 161 185 163 136 130 109 118 86 53 53 39 23 27 40 35 29 15 15 16 23 39 24 2 11 6 9 26 76 136 153 147 151 152 155 155 158 159 161 165 162 161
5 70 177 165 166 161 154 124 125 30 24 5 8 22 21 12 11 11 22 16 19 21 29 45 26 22 25 29 45 81 120 149 147 156 155 157 160 160 160 161 165 164 163
18 15 166 153 159 171 150 142 51 78 37 63 310 342 356 360 12 8 13 19 21 24 28 39 46 37 35 36 48 82 106 140 138 158 156 156 158 157 159 161 167 168 169
6 354 176 152 172 165 164 157 299 351 94 275 346 359 4 0 11 11 21 23 13 25 28 34 45 50 41 44 50 67 100 125 128 155 160 163 160 160 157 159 169 176 177
354 328 199 188 181 153 172 216 284 14 31 344 7 357 10 8 8 12 15 22 19 30 37 31 36 48 50 44 48 59 73 112 134 149 158 162 159 161 165 170 164 162 173
293 334 172 181 189 199 209 270 300 323 234 301 334 0 350 345 1 7 16 20 30 24 28 28 34 34 51 54 49 53 65 80 119 147 157 158 165 170 170 167 167 169 172
283 306 189 204 210 212 239 269 286 283 187 302 321 330 332 337 347 2 10 16 18 36 30 29 33 34 32 46 60 55 60 72 93 143 168 167 173 175 174 177 179 176 180
258 243 203 205 215 242 259 268 278 268 292 268 319 306 300 337 358 360 1 353 19 32 32 30 27 22 32 30 43 68 69 66 78 97 153 181 187 188 191 192 189 182 186
244 244 215 217 212 218 271 267 257 268 281 275 252 272 292 317 330 334 360 343 0 11 28 25 17 17 21 33 36 43 62 85 87 91 113 140 170 191 203 207 201 201 202
236 247 211 219 234 264 297 275 274 289 282 269 249 263 272 299 312 327 340 321 342 344 351 1 4 17 22 20 35 44 47 57 76 105 114 136 168 181 197 205 206 200 203
236 240 246 258 260 279 280 278 275 287 285 270 254 263 285 287 292 286 295 313 314 319 323 342 351 15 14 26 12 51 51 46 44 50 74 121 147 170 188 198 197 199 200
239 238 259 259 259 269 279 283 289 289 285 277 262 252 261 279 291 300 310 309 305 305 316 320 342 355 12 34 25 9 1 53 46 19 28 9 301 184 177 183 198 200 203
236 242 253 264 262 267 276 287 291 292 284 272 260 271 272 290 294 296 301 308 315 298 290 300 311 331 343 11 17 15 358 349 9 32 13 22 340 277 191 193 194 201 205
238 245 253 246 254 273 267 279 283 284 296 288 277 275 278 276 280 285 294 300 305 306 304 287 292 305 301 310 349 342 334 341 324 338 9 13 36 255 225 184 190 192 198
236 253 243 251 258 254 261 262 282 285 289 283 279 280 280 286 287 292 298 294 290 289 294 299 304 296 290 287 289 312 328 336 353 336 338 347 7 88 221 211 203 204 202
249 252 260 262 285 284 264 265 267 273 282 282 284 275 278 291 293 303 296 292 298 300 285 284 291 298 300 286 270 283 291 284 288 300 302 323 317 342 80 242 229 224 222
258 259 258 254 256 259 268 262 260 263 275 271 274 280 278 281 289 293 298 290 291 288 291 293 290 282 286 292 284 268 269 275 270 270 282 300 296 282 276 266 267 236 219
255 253 252 248 245 257 266 266 259 259 262 266 272 277 280 282 285 285 283 286 290 292 291 287 285 285 287 281 279 274 269 262 265 273 278 280 293 272 254 241 231 229 222
240 245 248 251 258 262 262 263 263 263 261 265 265 264 264 268 272 278 282 284 287 293 294 295 293 291 288 285 282 273 265 259 258 262 267 271 272 270 251 241 240 231 227
252 248 248 250 253 261 263 260 260 258 256 259 261 259 260 265 266 272 276 281 283 283 283 284 285 286 286 284 283 281 275 268 264 263 265 262 260 261 260 249 242 245 244
269 275 274 266 263 263 258 255 256 255 254 254 255 255 254 260 261 269 271 273 276 280 283 283 281 281 279 277 279 278 278 276 268 265 265 263 262 261 257 247 244 252 250
268 272 273 275 271 264 264 261 260 260 263 265 264 267 266 266 265 267 270 271 271 276 280 281 283 282 283 280 278 277 274 274 272 271 267 264 258 257 257 256 249 251 252
271 272 274 274 273 270 268 265 262 261 262 265 266 269 266 266 268 271 272 272 272 273 275 281 281 282 282 283 282 280 275 275 270 269 266 263 261 261 259 254 252 254 250
276 273 273 273 273 272 271 268 267 266 266 267 268 267 268 269 268 269 270 273 277 280 283 285 284 286 287 286 284 280 276 272 269 268 264 260 261 260 258 257 252 250 252
278 276 274 276 275 273 272 271 270 269 271 273 274 276 275 274 274 276 278 278 280 282 283 283 285 285 283 283 282 279 278 277 272 268 265 261 261 260 258 257 254 254 251
Height
10963 10963 10963 10964 10965 10965 10965 10964 10964 10965 10963 10963 10961 10958 10955 10952 10947 10944 10939 10931 10925 10918 10914 10913 10908 10903 10899 10896 10892 10890 10891 10893 10895 10895 10896 10901 10906 10911 10916 10920 10925 10929 10934
10964 10963 10964 10965 10965 10965 10965 10966 10966 10966 10967 10965 10963 10960 10957 10955 10951 10946 10942 10935 10928 10922 10919 10916 10911 10906 10901 10896 10893 10891 10891 10894 10896 10898 10900 10904 10909 10915 10919 10923 10928 10932 10936
10965 10963 10963 10964 10965 10966 10966 10967 10967 10966 10967 10966 10964 10963 10960 10955 10952 10949 10946 10939 10933 10927 10923 10918 10913 10908 10903 10897 10894 10892 10893 10895 10898 10901 10904 10909 10914 10918 10923 10926 10930 10934 10938
10965 10963 10964 10964 10966 10967 10967 10968 10967 10967 10968 10968 10965 10964 10961 10959 10955 10952 10947 10942 10937 10932 10927 10921 10916 10911 10905 10901 10898 10895 10895 10897 10900 10903 10908 10914 10920 10923 10927 10931 10934 10937 10941
10963 10963 10963 10965 10966 10967 10968 10969 10968 10967 10967 10967 10967 10964 10962 10959 10956 10953 10950 10945 10941 10936 10930 10924 10920 10914 10909 10906 10904 10900 10898 10901 10903 10905 10911 10917 10922 10926 10931 10935 10938 10941 10944
10963 10962 10963 10964 10966 10967 10969 10969 10969 10968 10967 10967 10966 10964 10963 10960 10957 10956 10953 10949 10945 10940 10934 10930 10924 10918 10913 10911 10909 10906 10904 10904 10906 10909 10915 10920 10925 10929 10933 10938 10941 10944 10947
10963 10962 10962 10964 10966 10968 10968 10969 10969 10968 10966 10966 10966 10966 10965 10962 10960 10959 10956 10952 10947 10943 10938 10934 10929 10925 10918 10915 10914 10912 10911 10910 10911 10914 10919 10922 10927 10932 10936 10939 10943 10946 10950
10962 10963 10964 10965 10966 10967 10968 10968 10968 10968 10966 10966 10966 10967 10965 10964 10962 10960 10957 10954 10950 10947 10943 10939 10936 10930 10925 10922 10919 10918 10918 10917 10917 10918 10923 10926 10930 10933 10937 10940 10943 10947 10951
10962 10963 10964 10965 10966 10967 10968 10968 10968 10967 10966 10965 10965 10966 10965 10964 10962 10960 10958 10956 10952 10948 10946 10943 10940 10936 10933 10929 10926 10922 10921 10922 10923 10924 10926 10929 10933 10936 10938 10941 10943 10947 10951
10960 10961 10962 10963 10964 10965 10966 10965 10965 10965 10965 10964 10965 10964 10963 10963 10963 10962 10959 10956 10955 10952 10949 10946 10944 10941 10939 10936 10931 10927 10925 10924 10925 10927 10929 10930 10933 10936 10939 10942 10944 10946 10949
10959 10959 10960 10961 10962 10963 10963 10963 10963 10962 10963 10963 10963 10963 10962 10961 10961 10959 10958 10957 10954 10952 10950 10948 10947 10945 10942 10940 10935 10932 10931 10931 10931 10929 10929 10931 10933 10936 10938 10941 10944 10946 10949
10956 10958 10959 10960 10961 10961 10961 10961 10961 10960 10960 10961 10961 10961 10960 10960 10959 10958 10957 10956 10954 10952 10951 10950 10948 10946 10944 10942 10942 10937 10935 10935 10935 10934 10934 10932 10932 10933 10936 10940 10944 10947 10950
10953 10955 10957 10958 10958 10958 10958 10958 10958 10957 10957 10958 10959 10960 10959 10957 10956 10954 10953 10953 10950 10949 10948 10949 10948 10947 10947 10945 10945 10943 10940 10938 10938 10938 10936 10936 10936 10935 10934 10935 10941 10944 10948
10950 10952 10954 10954 10954 10954 10955 10954 10954 10954 10954 10954 10955 10954 10954 10954 10953 10951 10950 10949 10948 10947 10947 10947 10946 10948 10948 10946 10945 10945 10944 10943 10941 10939 10939 10937 10937 10938 10937 10938 10939 10942 10945
10946 10949 10949 10950 10951 10951 10951 10950 10951 10951 10951 10951 10951 10950 10950 10950 10950 10950 10950 10948 10947 10946 10944 10945 10945 10945 10947 10947 10945 10944 10943 10942 10942 10941 10941 10939 10937 10938 10939 10939 10940 10942 10943
10944 10942 10945 10946 10947 10948 10947 10946 10946 10948 10947 10948 10949 10948 10947 10946 10947 10948 10947 10946 10945 10944 10943 10942 10942 10943 10943 10944 10943 10943 10943 10943 10942 10942 10941 10940 10939 10938 10939 10940 10941 10942 10943
10940 10941 10941 10941 10942 10943 10943 10942 10941 10943 10943 10943 10943 10944 10944 10944 10943 10943 10943 10943 10943 10941 10940 10940 10939 10939 10939 10940 10940 10941 10942 10942 10941 10941 10942 10941 10941 10939 10938 10940 10940 10941 10941
10935 10936 10937 10938 10939 10938 10938 10938 10937 10938 10938 10939 10939 10939 10939 10940 10939 10938 10939 10939 10939 10938 10936 10935 10935 10935 10936 10938 10937 10937 10937 10939 10939 10939 10940 10940 10941 10941 10940 10940 10940 10940 10940
10929 10931 10933 10934 10934 10934 10934 10934 10933 10933 10933 10934 10934 10934 10934 10933 10932 10932 10933 10933 10934 10934 10933 10932 10931 10932 10933 10934 10935 10935 10934 10935 10935 10934 10936 10937 10938 10939 10940 10939 10939 10941 10942
10923 10925 10926 10928 10928 10928 10928 10929 10929 10929 10929 10928 10929 10929 10928 10929 10928 10927 10926 10927 10928 10928 10928 10928 10927 10926 10927 10928 10929 10929 10931 10930 10930 10928 10928 10930 10932 10934 10936 10936 10937 10938 10939
10918 10919 10920 10921 10921 10921 10921 10921 10921 10921 10921 10921 10922 10923 10922 10921 10921 10921 10921 10921 10921 10921 10921 10920 10920 10920 10920 10920 10921 10922 10922 10922 10923 10922 10922 10923 10925 10926 10929 10931 10932 10934 10934
10909 10911 10914 10915 10914 10914 10913 10912 10913 10913 10912 10912 10912 10911 10911 10911 10912 10911 10911 10910 10910 10912 10912 10911 10910 10910 10912 10912 10912 10912 10912 10912 10912 10914 10911 10914 10915 10916 10919 10922 10923 10924 10925
10902 10903 10904 10905 10905 10904 10903 10903 10903 10903 10903 10902 10902 10902 10901 10901 10901 10900 10901 10901 10901 10902 10902 10902 10901 10900 10899 10902 10902 10902 10902 10900 10900 10902 10900 10900 10904 10904 10908 10909 10910 10912 10913
10893 10894 10895 10895 10894 10893 10893 10893 10891 10891 10890 10890 10889 10888 10887 10888 10888 10887 10887 10888 10888 10888 10889 10888 10887 10886 10886 10886 10888 10890 10889 10889 10887 10887 10891 10884 10888 10888 10893 10895 10896 10896 10898
10883 10884 10884 10884 10884 10883 10882 10880 10879 10878 10877 10876 10876 10875 10873 10873 10873 10871 10871 10870 10871 10871 10872 10871 10870 10869 10868 10868 10870 10872 10871 10875 10873 10869 10872 10874 10868 10875 10876 10875 10877 10879 10882
10872 10873 10871 10871 10871 10869 10868 10867 10865 10863 10861 10861 10860 10859 10858 10857 10856 10855 10854 10854 10852 10852 10851 10851 10851 10850 10849 10847 10848 10852 10851 10853 10852 10851 10846 10858 10852 10857 10859 10858 10859 10861 10864